Regional Weather Roundup
Issued by NWS

Home | Current Version | Previous Version | Graphics & Text | Print | Product List | Glossary On
Versions: 1 2 3 4 5 6 7 8 9 10 11 12 13 14 15 16 17 18 19 20 21 22 23 24 25 26 27 28 29 30 31 32 33 34 35 36 37 38 39 40 41 42 43 44 45 46 47 48 49 50
000
ASUS43 KIND 072359
RWRIN

WEATHER ROUNDUP FOR INDIANA
NATIONAL WEATHER SERVICE INDIANAPOLIS IN
800 PM EDT TUE JUL 07 2015

NOTE: "FAIR" INDICATES FEW OR NO CLOUDS BELOW 12,000 FEET WITH NO
SIGNIFICANT WEATHER AND/OR OBSTRUCTIONS TO VISIBILITY.

* - STATION DOES NOT REPORT WEATHER SUCH AS PRECIPITATION OR FOG.

+ - STATION NOT QUALITY CONTROLLED BY THE NATIONAL WEATHER SERVICE.
    USE DATA WITH CAUTION...ESPECIALLY DEWPOINT AND RELATIVE
    HUMIDITY OBSERVATIONS.

INZ001>003-010>013-019-020-080100-
NORTHWEST INDIANA

CITY           SKY/WX    TMP DP  RH WIND       PRES   REMARKS
GARY /AIRPORT/ MOSUNNY   63  50  63 N14G25    30.07S
RENSSELAER +   MOSUNNY   64  50  59 N12G20    30.05R

$$

LMZ046-743>745-080100-
SOUTHERN LAKE MICHIGAN

STATION/POSITION TIME  TEMP    WIND        PRES    WAVE
                       AIR SEA DIR/SP/G            HT
                 (UTC) (F)     (DEG/KT/KT) (MB)    (FT)
BURNS HARBOR     2300   62      20/ 20/ 23 1017.9S
MICHIGAN CITY    2300   61     360/ 28/ 31   N/A
5NW MICH CITY    2300   62 65   30/ 19/ 27   N/A     9

$$

INZ004-005-014>016-021>024-080100-
NORTH CENTRAL INDIANA

CITY           SKY/WX    TMP DP  RH WIND       PRES   REMARKS
ELKHART        SUNNY     64  48  55 NW7       30.02R
GOSHEN         SUNNY     65  54  67 NW10      30.00R
6HR MIN TEMP:  65; 6HR MAX TEMP:  71; 6HR PCP: TRACE;

SOUTH BEND     SUNNY     63  47  55 N18       30.03R
6HR MIN TEMP:  63; 6HR MAX TEMP:  70;


$$

INZ006>009-017-018-025>027-080100-
NORTHEAST INDIANA

CITY           SKY/WX    TMP DP  RH WIND       PRES   REMARKS
ANGOLA *+      CLOUDY    70  61  73 N5        29.96R
FORT WAYNE     CLOUDY    69  61  75 N10       29.97R
6HR MIN TEMP:  67; 6HR MAX TEMP:  72; 6HR PCP:  0.04;


$$

INZ028-029-035-036-043>045-051>053-080100-
WEST CENTRAL INDIANA

CITY           SKY/WX    TMP DP  RH WIND       PRES   REMARKS
CRAWFORDSVL +  CLOUDY    64  49  59 N9G17     30.02R
6HR MIN TEMP:  62; 6HR MAX TEMP:  66; 6HR PCP:  0.02;

GREENCASTLE +  CLOUDY    64  55  72 N12       30.01S
LAFAYETTE      CLOUDY    64  48  56 N13G21    30.02R
6HR MIN TEMP:  64; 6HR MAX TEMP:  68; 6HR PCP:  0.01;

TERRE HAUTE    CLOUDY    65  61  87 N9        30.00S
6HR MIN TEMP:  65; 6HR MAX TEMP:  73; 6HR PCP:  0.98;


$$

INZ030>032-037>040-046>048-054>057-064-065-080100-
CENTRAL INDIANA

CITY           SKY/WX    TMP DP  RH WIND       PRES   REMARKS
GREENWOOD *+   CLOUDY    66  61  82 N8        30.00R
INDIANAPOLIS   CLOUDY    67  60  78 NW7       29.99R
6HR MIN TEMP:  66; 6HR MAX TEMP:  72; 6HR PCP:  2.70;

-EAGLE CREEK   CLOUDY    67  59  75 N8        29.99R
6HR MIN TEMP:  66; 6HR MAX TEMP:  72; 6HR PCP:  0.48;

KOKOMO *+      CLOUDY    66  54  63 N14       29.99R
6HR MIN TEMP:  66; 6HR MAX TEMP:  70; 6HR PCP:  0.01;

MT COMFORT *+  CLOUDY    64 N/A N/A N7        30.00R
SHELBYVILLE    CLOUDY    68  64  87 NW8G25    29.98R
6HR MIN TEMP:  68; 6HR MAX TEMP:  76; 6HR PCP:  0.47;


$$

INZ033-034-041-042-049-050-058-059-080100-
EAST CENTRAL INDIANA

CITY           SKY/WX    TMP DP  RH WIND       PRES   REMARKS
MUNCIE         LGT RAIN  66  64  93 N7        29.98R FOG
6HR MIN TEMP:  66; 6HR MAX TEMP:  72; 6HR PCP:  0.80;


$$

INZ060-061-067>069-081>083-085>088-080100-
SOUTHWEST INDIANA

CITY           SKY/WX    TMP DP  RH WIND       PRES   REMARKS
EVANSVILLE     PTSUNNY   77  74  90 SW5       29.97R
6HR MIN TEMP:  72; 6HR MAX TEMP:  78; 6HR PCP:  0.64;

HUNTINGBURG *+ CLOUDY    75  72  88 CALM      29.98R
6HR MIN TEMP:  73; 6HR MAX TEMP:  75; 6HR PCP:  0.29;


$$

INZ062-063-066-070>080-084-089>092-080100-
SOUTH CENTRAL AND SOUTHEAST INDIANA

CITY           SKY/WX    TMP DP  RH WIND       PRES   REMARKS
BLOOMINGTON    CLOUDY    67  65  93 N7        29.99R
6HR MIN TEMP:  67; 6HR MAX TEMP:  76; 6HR PCP:  0.96;

MADISON *+     CLOUDY    72  70  94 SW6       30.00S
SEYMOUR +      LGT RAIN  73  73 100 W8        29.97S

$$




USA.gov is the U.S. government's official web portal to all federal, state and local government web resources and services.